Regional Weather Roundup
Issued by NWS

Home | Current Version | Previous Version | Graphics & Text | Print | Product List | Glossary On
Versions: 1 2 3 4 5 6 7 8 9 10 11 12 13 14 15 16 17 18 19 20 21 22 23 24 25 26 27 28 29 30 31 32 33 34 35 36 37 38 39 40 41 42 43 44 45 46 47 48 49 50
000
ASUS45 KTFX 281010
RWRMT
MONTANA REGIONAL WEATHER ROUNDUP
NATIONAL WEATHER SERVICE GREAT FALLS MT
400 AM MDT SAT MAY 28 2016

NOTE: "FAIR" INDICATES FEW OR NO CLOUDS BELOW 12000 FEET WITH NO
SIGNIFICANT WEATHER AND/OR OBSTRUCTIONS TO VISIBILITY.

MTZ001>007-043-281100-
WEST OF THE DIVIDE

CITY           SKY/WX    TMP DP  RH WIND       PRES   REMARKS
KALISPELL      CLOUDY    40  37  89 W3        29.98F
MISSOULA       CLOUDY    40  36  86 SW5       30.03F
BUTTE          CLOUDY    37  35  92 S5        30.02S
MULLAN PASS    CLOUDY    34  27  75 SW7       30.01S WCI  28
ANACONDA         N/A     37  32  81 SW3       30.01S
DEER LODGE       N/A     37  36  93 NW3       30.03S
EUREKA           N/A     45  37  76 SE6       29.98S
HAMILTON         N/A     37  32  81 SE6       30.02S
LIBBY            N/A     36  36 100 CALM      30.01S
$$

MTZ008-052>055-281100-
SOUTHWEST MONTANA

CITY           SKY/WX    TMP DP  RH WIND       PRES   REMARKS
BOZEMAN        CLOUDY    46  43  89 S6        29.98F
DILLON         CLOUDY    43  40  89 SE3       29.99F
W YELLOWSTONE  CLOUDY    37  37 100 NE5       30.03S
ENNIS          CLOUDY    43  39  87 S3        30.05S
$$

MTZ009-010-012-014-046-048-049-054-281100-
EAST SLOPES AND CENTRAL MONTANA

CITY           SKY/WX    TMP DP  RH WIND       PRES   REMARKS
CUT BANK       PTCLDY    41  30  65 W15       29.91S
GREAT FALLS    CLOUDY    41  33  73 W9        29.95S
MALMSTROM AFB  CLOUDY    49  36  60 W12       29.95R
HELENA         CLOUDY    41  33  73 W8        29.98S
CHOTEAU          N/A     41  32  70 S5        29.94F
$$

MTZ011-013-016-021-045-047-050-051-281100-
NORTH CENTRAL MONTANA

CITY           SKY/WX    TMP DP  RH WIND       PRES   REMARKS
HAVRE          CLOUDY    51  47  86 SW8       29.88R
LEWISTOWN      CLOUDY    46  43  89 W6        29.93S
N BAR RANCH    CLOUDY    45  41  87 W10       29.94S
CHINOOK          N/A     52  52 100 CALM      29.89S
$$

MTZ017>020-022>027-061-062-281100-
NORTHEAST MONTANA

CITY           SKY/WX    TMP DP  RH WIND       PRES   REMARKS
GLASGOW        PTCLDY    50  48  93 S3        29.85R
JORDAN           N/A     53  49  86 W10       29.85R
SIDNEY         CLOUDY    55  54  94 E3        29.86S
WOLF POINT     CLOUDY    55  53  93 E10       29.86S
PLENTYWOOD       N/A     54  54 100 E13       29.89F
POPLAR           N/A     54  52  94 NE7       29.87S
$$

MTZ028>42-056>058-281100-
SOUTHCENTRAL AND SOUTHEAST MONTANA

CITY           SKY/WX    TMP DP  RH WIND       PRES   REMARKS
BAKER          CLOUDY    50  45  83 CALM      29.86F
BILLINGS       CLOUDY    50  47  89 SW7       29.93S
LIVINGSTON     CLOUDY    45  42  89 NW8       29.96S
MILES CITY     MOCLDY    51  48  89 SW7       29.86R
FORSYTH          N/A     54  50  87 W7        29.87S
$$

REGIONAL REPORTS...DAKOTAS

CITY           SKY/WX    TMP DP  RH WIND       PRES   REMARKS
WILLISTON      CLOUDY    56  52  86 E8        29.88S
MINOT          CLOUDY    56  53  90 N6        29.89R
DICKINSON      CLEAR     45  42  89 CALM      29.84S
BEACH          CLOUDY    48  48 100 SE5       29.88S
CROSBY         CLOUDY    50  50 100 E14       29.93S
WATFORD CITY   CLOUDY    55  55 100 E10       29.88R
BISMARCK       CLOUDY    56  56 100 N8        29.85S FOG
GRAND FORKS    CLOUDY    62  57  83 E7        29.82S
FARGO          CLOUDY    59  56  89 NE5       29.80S
BUFFALO SD       N/A     53  46  77 S3        29.80F
RAPID CITY     CLEAR     44  41  89 NW9       29.87S
$$

REGIONAL REPORTS...WYOMING/IDAHO/WASHINGTON

CITY           SKY/WX    TMP DP  RH WIND       PRES   REMARKS
GILLETTE       CLOUDY    46  44  93 W7        29.91S
SHERIDAN       CLOUDY    47  44  90 CALM      29.90S
BUFFALO WY     CLOUDY    47  43  86 NW9       29.92F
CODY           CLOUDY    43  41  93 S3        29.96S
YELLOWSTONE LA   N/A     33  31  92 CALM      30.06S
IDAHO FALLS    CLEAR     44  32  62 S10       29.99S
SALMON         PTCLDY    45  36  70 CALM      29.99S
BOISE          PTCLDY    47  31  53 NW6       30.03R
SPOKANE        PTCLDY    44  33  65 S9        29.98S
$$

REGIONAL REPORTS...ALBERTA

CITY           SKY/WX    TMP DP  RH WIND       PRES   REMARKS
EDMONTON       CLOUDY    46  41  81 W8        29.82S
CALGARY        PTCLDY    39  36  87 CALM      29.87S
LETHBRIDGE     PTCLDY    43  34  70 W17       29.88S
MEDICINE HAT   CLOUDY    48  39  71 S7        29.85F
$$

REGIONAL REPORTS...SASKATCHEWAN

CITY           SKY/WX    TMP DP  RH WIND       PRES   REMARKS
SWIFT CURRENT  MOCLDY    54  50  87 SE7       29.84F
REGINA         CLOUDY    50  48  93 E14       29.93S
SASKATOON      PTCLDY    52  50  93 SE15G22   29.90F
$$



USA.gov is the U.S. government's official web portal to all federal, state and local government web resources and services.